weather.gov     
National Weather Service

Regional Weather Roundup
NWS Homepage
This page is being discontinued on March 12, 2014.
The same data is available at this site. Please update your bookmarks.
Thank you, and we apologize for the inconvenience.
Please send an email to SR-SRH.Webmaster@noaa.gov with any concerns.


Current Version
Previous Version:    01  02  03  04  05  06  07  08  09  10  11  12  13  14  15  16  17  18  19  20  21  22  23  24  25  26  27  28  29  30  
   31  32  33  34  35  36  37  38  39  40  41  42  43  44  45  46  47  48  49  50  51  52  53  54  55  
[Printable]
017
ASUS42 KCHS 250225
RWRCHS

REGIONAL WEATHER ROUNDUP
NATIONAL WEATHER SERVICE CHARLESTON SC
1000 PM EDT THU APR 24 2014

NOTE: "FAIR" INDICATES FEW OR NO CLOUDS BELOW 12,000 FEET WITH NO
SIGNIFICANT WEATHER AND/OR OBSTRUCTIONS TO VISIBILITY.

NOT ALL STATIONS ARE QUALITY CONTROLLED BY THE NATIONAL
WEATHER SERVICE. USE DATA WITH CAUTION...ESPECIALLY
DEWPOINT OBSERVATIONS.

SCZ027-030-031-034>040-042>050-250300-
...SOUTH CAROLINA...

CITY           SKY/WX    TMP DP  RH WIND       PRES   REMARKS
N CHARLESTON   PTCLDY    64  57  78 E8        30.00S
WATERFRONT PRK   N/A     66 N/A N/A E6          N/A
FORT JOHNSON     N/A     64  61  88 E3        30.05S
MOUNT PLEASANT LGT RAIN  63  61  94 CALM      30.00S
JOHNS ISLAND   CLEAR     63  61  94 NE6       30.00S
PINOPOLIS        N/A     64  55  72 E8        29.93R
MONCKS CORNER  FAIR      64  59  82 E3        30.00S
SUMMERVILLE    NOT AVBL
BEAUFORT MCAS  CLEAR     66  61  84 S6        29.99R
BEAUFORT ARPT  FAIR      64  63  94 E5        29.98S
HILTON HEAD IS CLEAR     64  63  94 NE3       30.00S
GEORGETOWN     NOT AVBL
WALTERBORO     CLEAR     61  61 100 E5        30.00S
ORANGEBURG     CLEAR     66  56  70 SE7       29.99R
BARNWELL       FAIR      66  61  82 SE7       29.97S
AIKEN          FAIR      68  61  77 SE7       29.99S
MANNING        FAIR      63  57  82 E5        30.01S
KINGSTREE      NOT AVBL
COLUMBIA       PTCLDY    68  55  63 SE8       29.97R
SUMTER         CLEAR     65  54  65 SE7       29.98R
FLORENCE       CLEAR     61  50  67 SE7       30.02R
MYRTLE BEACH   CLEAR     63  55  77 CALM      30.04S
N MYRTLE BEACH PTCLDY    62  55  77 E7        30.04S

$$

GAZ063-065-086>088-099>101-113>116-118-119-134-136>141-150-250300-
...GEORGIA...

CITY           SKY/WX    TMP DP  RH WIND       PRES   REMARKS
SAVANNAH ARPT  PTCLDY    67  61  81 E6        29.98S
HUNTER AAF     CLEAR     64  63  94 E6        29.96F
FORT STEWART   CLEAR     65  65 100 E6        29.96R
STATESBORO     NOT AVBL
SYLVANIA       CLEAR     67  61  81 SE3       29.98S
CLAXTON        FAIR      68  66  94 CALM      29.97S
THOMSON        PTCLDY    61  58  91 CALM      29.99R
AUGUSTA-BUSH   CLEAR     67  58  72 SE7       29.94R
AUGUSTA-DANIEL CLEAR     71  59  65 SE7       29.95S
SWAINSBORO     FAIR      70  63  78 SE9       29.96R
VIDALIA        CLEAR     70  63  78 SE6       29.96S
ALMA           PTCLDY    72  63  73 E8        29.94R
WAYCROSS       NOT AVBL
JESUP          FAIR      64  64 100 E5        29.96S
BRUNSWICK      CLEAR     68  68 100 E3        29.98R
SAINT SIMONS   CLEAR     70  68  93 E5        29.96S

$$

SCZ027-028-034-036>038-045-046-048>050-GAZ119-141-250300-
...LAKE AND SUPPLEMENTAL COASTAL OBSERVATIONS...

STATION/POSITION TIME  TEMP    WIND        PRES    WAVE   SWELL
                       AIR SEA DIR/SP/G            HT/PER HT/PER/DIR
                 (UTC) (F)     (DEG/KT/KT) (MB)    (FT/S) (FT/S/D)
UPR LAKE MARION  NOT AVBL
WINYAH BAY       0200   63      60/  7     1016.0S
LAKE MURRAY      0200   69     100/  5/  9 1014.2S
ACE BASIN NERRS  0200   64      60/  2     1015.0S
FORT PULASKI     NOT AVBL
SAPELO ISLAND    0100   69      60/  3     1015.0S

$$

ANZ835-935-AMZ111-154-330-350-352-354-374-450-454-472-250300-
...C-MAN AND BUOY OBSERVATIONS...

STATION/POSITION TIME  TEMP    WIND        PRES    WAVE   SWELL
                       AIR SEA DIR/SP/G            HT/PER HT/PER/DIR
                 (UTC) (F)     (DEG/KT/KT) (MB)    (FT/S) (FT/S/D)
FOLLY BEACH CMAN 0200   64      60/ 13/ 15 1016.1F
BUOY 41004       0200   72 72  130/ 10/ 12 1015.4R   4/ 6   3/ 6
BUOY 41008       0200   69 68   70/  6/  6 1014.8S   2/ 5   2/ 40/ 5
5E ST. MARYS GA  0200      69                N/A     1/ 8
FRYING PAN BUOY  0200   69 68  160/ 10/ 12 1016.7R   4/ 9   3/ 90/ 9
BUOY 41025       NOT AVBL
CAPE LOOKOUT NC  0200   61     120/  5/  5 1017.9R
BUOY 41002       NOT AVBL
BUOY 41010       0200   75 76  140/ 10/ 12 1016.6S   2/15   2/ 50/15
BUOY 41012       NOT AVBL
ST AUGUSTINE FL  0200   70     150/  8/  9 1015.5R
CAPERS NEARSHORE NOT AVBL
FRIPP NEARSHORE  0100   64      80/ 12/ 14   N/A


$$




U.S. Dept. of Commerce
NOAA National Weather Service
1325 East West Highway
Silver Spring, MD 20910
E-mail: w-nws.webmaster@noaa.gov
Page last modified: May 16, 2007
NATIONAL WEATHER SERVICE: for Safety, for Work, for Fun - FOR LIFE